AJISAI (EGS)

Last updated on Fri Oct 11 2024 00:02:10 GMT+0000 (Coordinated Universal Time)

1 16908U 86061A 24284.56457468 -.00000080 00000+0 12008-3 0 9992 2 16908 50.0082 237.3354 0011398 55.7489 100.9596 12.44508127403852
UTC large
Height (km)
Speed (km/s)
/
Latitude / Longitude
Inclination (degrees)
Orbital Period (minutes)
Azimuth
Elevation
Range (km)
Doppler Factor

Next 0 passes for location: London (51.5072 / 0.1276)

Sorry there are no passes over London.